OpenBCM V1.13 (Linux)

Packet Radio Mailbox

DB0FHN

[JN59NK Nuernberg]

 Login: GUEST





  
I0OJJ  > KEPS     16.01.25 15:22l 328 Lines 15576 Bytes #999 (0) @ AMSAT
BID : ORB25016.1
Read: DJ6UX GUEST
Subj: 2Line Orbital Elements 25016.AMSAT
Path: DB0FHN<DB0FFL<OE5XBL<OE6XPE<DB0ERF<DK0WUE<DK0WUE<VK5RSV<PI8ZTM<I0OJJ
Sent: 250116/1310z @:I0OJJ.ITA.EU [Rome] obcm1.08-6-g5b69
From: I0OJJ @ I0OJJ.ITA.EU (Gustavo)
To:   KEPS @ AMSAT
X-Info: This message was generated automatically


QST de W1STR

AMSAT Orbital Elements for Amateur Satellites in TLE Format
From Orbital Analysis Office
New England Sci-Tech STEM Education Center
Natick, MA January 16, 2025
To all radio amateurs


These element sets describe the orbits of various satellites 
in use by the amateur radio community. For details see:
www.amsat.org/keplerian-elements-formats/

A daily update of element sets is available at:
www.amsat.org/tle/daily-bulletin.txt
or without bulletin text:
www.amsat.org/tle/dailytle.txt


AO-07
1 07530U 74089B   25015.58481814 -.00000044  00000-0  12179-4 0  9998
2 07530 101.9915  18.3167 0012334  39.7510  78.1880 12.53685044295654
UO-11
1 14781U 84021B   25015.85076771  .00002604  00000-0  28597-3 0  9996
2 14781  97.7350 345.3442 0009553  93.9556 266.2753 14.88481660201109
AO-27
1 22825U 93061C   25015.59685972  .00000209  00000-0  97235-4 0  9993
2 22825  98.7599  76.2862 0008579 170.7901 189.3440 14.30707518632986
FO-29
1 24278U 96046B   25015.61612772  .00000032  00000-0  69171-4 0  9996
2 24278  98.5890 288.4830 0350022 358.2481   1.7409 13.53231818403160
NOAA-15
1 25338U 98030A   25015.80161111  .00000265  00000-0  12693-3 0  9990
2 25338  98.5505  44.3153 0011221  65.9236 294.3118 14.26856743387757
GO-32
1 25397U 98043D   25015.48443374  .00000169  00000-0  93278-4 0  9999
2 25397  98.9524 351.7235 0000241 265.7571  94.3579 14.24234153377633
ISS
1 25544U 98067A   25015.71081605 -.00019999  00000-0 -34300-3 0  9993
2 25544  51.6408 342.3236 0001968  98.6252 317.1620 15.50030601491516
NO-44
1 26931U 01043C   25015.75750075  .00000381  00000-0  17420-3 0  9997
2 26931  67.0507 142.2424 0006276 261.4612  98.5779 14.31582734216530
SO-50
1 27607U 02058C   25015.80232314  .00002331  00000-0  31645-3 0  9994
2 27607  64.5550 287.1555 0038716  12.1526 348.0503 14.80763142187997
CO-55
1 27844U 03031E   25015.57305160  .00000571  00000-0  26882-3 0  9994
2 27844  98.6780  25.7218 0008688 246.1826 113.8443 14.23765859118003
CO-57
1 27848U 03031J   25015.45519009  .00000511  00000-0  24586-3 0  9997
2 27848  98.6809  25.7172 0008499 265.4514  94.5693 14.23134310117728
RS-22
1 27939U 03042A   25015.83002279  .00001872  00000-0  30922-3 0  9990
2 27939  98.3097 181.9786 0012629 106.7294  25.0327 14.71585692139535
NOAA-18
1 28654U 05018A   25015.79986486  .00000316  00000-0  19145-3 0  9992
2 28654  98.8566  96.8463 0014399 176.8934 183.2330 14.13487070 13299
CO-58
1 28895U 05043F   25015.38243002  .00002819  00000-0  47858-3 0  9994
2 28895  98.2259 158.2263 0015680  49.5791 310.6779 14.69917440 25602
CO-65
1 32785U 08021C   25015.48714693  .00007369  00000-0  57247-3 0  9994
2 32785  97.7685 346.0347 0009568   3.5838 356.5453 15.01582459907356
AAUSAT2
1 32788U 08021F   25015.48793000  .00070305  00000-0  16321-2 0  9993
2 32788  97.6045   5.7719 0006651 111.1662 249.0296 15.42099880910734
CO-66
1 32791U 08021J   25015.48837637  .00016876  00000-0  96700-3 0  9995
2 32791  97.7138 353.0479 0003286 335.0364  25.0707 15.12671064908598
RS-30
1 32953U 08025A   25015.78062056  .00000038  00000-0  19877-3 0  9990
2 32953  82.5059 317.2524 0019942   4.4028 355.7224 12.43157236755548
NOAA-19
1 33591U 09005A   25015.78288494  .00000255  00000-0  16041-3 0  9995
2 33591  99.0194  79.5514 0014447  55.4727 304.7807 14.13259835821658
SRMSAT
1 37841U 11058D   25015.25773740  .00000532  00000-0  14568-3 0  9993
2 37841  19.9732 313.9013 0011646 266.1747 247.9652 14.11337155684551
ZACUBE-1
1 39417U 13066B   25015.86057621  .00005248  00000-0  48743-3 0  9996
2 39417  97.7628 334.0734 0046383 172.9479 187.2403 14.93990765603289
Delfi-N3xt
1 39428U 13066N   25015.32213622  .00008880  00000-0  97907-3 0  9995
2 39428  97.8387 294.9541 0091979 117.0423 244.0216 14.84646998597499
GOMX-1
1 39430U 13066Q   25015.69722620  .00003533  00000-0  56605-3 0  9991
2 39430  97.7015 243.1677 0133850 296.1598  62.5892 14.66498363594167
LO-74
1 39440U 13066AA  25015.85243309  .00007082  00000-0  75622-3 0  9995
2 39440  97.8361 321.7819 0063263 297.9736  61.5087 14.87638473601106
AO-73
1 39444U 13066AE  25015.44590888  .00009632  00000-0  79537-3 0  9993
2 39444  97.7489 337.5527 0043806 149.1942 211.1865 14.98428835601826
DTUSAT-2
1 40030U 14033W   25015.43857142  .00010283  00000-0  73667-3 0  9991
2 40030  98.0392 340.7876 0009535 180.1046 180.0179 15.04560359574546
EO-80
1 40032U 14033Y   25015.46683846  .00009576  00000-0  68511-3 0  9999
2 40032  98.0268 340.6673 0010606 123.2704 236.9538 15.04620683574529
XW-2C
1 40906U 15049H   25015.75231126  .00234085  00000-0  10435-2 0  9995
2 40906  97.4464  48.4402 0002262 198.4680 161.6507 15.83661479517543
LILACSAT-2
1 40908U 15049K   25015.77442394  .00012572  00000-0  38612-3 0  9993
2 40908  97.5169  33.0523 0009383 328.8057  31.2627 15.33821924515990
IO-86
1 40931U 15052B   25014.40028706  .00001524  00000-0  11653-3 0  9990
2 40931   6.0024 282.7961 0013198 201.6771 158.2798 14.78508629502762
Horyu-4
1 41340U 16012D   25015.36875296  .00022772  00000-0  81102-3 0  9996
2 41340  30.9995  22.0031 0006074 341.5279  18.5143 15.27728127490495
Lapan A3
1 41603U 16040E   25015.80941587  .00004912  00000-0  18132-3 0  9994
2 41603  97.1383  26.2514 0013255  69.3242 290.9418 15.28122591475666
CAS-2T
1 41847U 16066G   25015.22280333  .00002298  00000-0  34011-3 0  9992
2 41847  98.4378  90.9133 0347814 257.9327  98.2694 14.42709538430055
CAS-4B
1 42759U 17034B   25015.60714826  .00039518  00000-0  83286-3 0  9995
2 42759  43.0131  93.2229 0015492 356.0056   4.0676 15.44449655420055
CAS-4A
1 42761U 17034D   25015.58057765  .00040063  00000-0  83275-3 0  9992
2 42761  43.0169  91.4257 0016389   3.5601 356.5371 15.44835365420061
TechnoSat
1 42829U 17042E   25015.44286959  .00005206  00000-0  42279-3 0  9999
2 42829  97.3922 191.2127 0014353  72.2296 288.0494 14.99940283408956
AO-91
1 43017U 17073E   25015.58401776  .00014360  00000-0  78853-3 0  9992
2 43017  97.5473 250.1679 0185768 300.2785  58.0169 15.00609677387437
S-Net D
1 43186U 18014G   25015.30407307  .00006911  00000-0  43829-3 0  9999
2 43186  97.5759 279.8387 0010196  14.3036 345.8479 15.09186605380444
S-Net B
1 43187U 18014H   25015.17522735  .00007188  00000-0  45583-3 0  9994
2 43187  97.5769 279.6753 0010799  10.0025 350.1417 15.09171440380421
S-Net A
1 43188U 18014J   25015.30490387  .00007045  00000-0  44663-3 0  9997
2 43188  97.5771 279.9359 0010678  10.0361 350.1079 15.09190915380443
S-Net C
1 43189U 18014K   25015.17732592  .00007310  00000-0  46336-3 0  9994
2 43189  97.5793 279.7986 0012043   2.3197 357.8085 15.09169556378974
Ten-Koh
1 43677U 18084G   25015.43256458  .00003575  00000-0  29949-3 0  9994
2 43677  98.0817 182.0113 0014011  31.9592 328.2476 14.99038533338487
PO-101
1 43678U 18084H   25015.74984499  .00002986  00000-0  26410-3 0  9997
2 43678  98.0888 186.5630 0009922  54.0849 306.1291 14.97092281338708
QO-100
1 43700U 18090A   25014.89424182  .00000143  00000-0  00000-0 0  9990
2 43700   0.0173  50.3013 0001332 243.3852 168.5831  1.00273461 22487
MinXSS-2
1 43758U 18099A   25015.14158642  .00016655  00000-0  80290-3 0  9993
2 43758  97.5251  81.2643 0012795 309.4628  50.5473 15.18717681334849
AO-95
1 43770U 18099N   25015.69364456  .00011457  00000-0  65419-3 0  9990
2 43770  97.5158  75.6389 0011798   1.4450 358.6813 15.12829384334610
RANGE-A
1 43773U 18099R   25015.68310488  .00006857  00000-0  46509-3 0  9995
2 43773  97.4723  68.3298 0011349 335.3478  24.7206 15.06690775334383
MOVE-II
1 43780U 18099Y   25015.82630645  .00042214  00000-0  11433-2 0  9993
2 43780  97.4897  85.3703 0004007 316.3680  43.7247 15.37540914335335
SNUSat 2
1 43782U 18099AA  25015.09902865  .00010033  00000-0  60494-3 0  9996
2 43782  97.4842  72.9114 0011870 299.9897  60.0154 15.10895304334501
SnugLite
1 43784U 18099AC  25015.68700795  .00011710  00000-0  66438-3 0  9998
2 43784  97.4655  72.8289 0002792 316.7745  43.3267 15.13107773334698
ITASat 1
1 43786U 18099AE  25015.09956015  .00008830  00000-0  54986-3 0  9997
2 43786  97.4808  72.7957 0015244 353.0589   7.0427 15.09716155334484
EAGLET 1
1 43790U 18099AJ  25015.63815273  .00006502  00000-0  43922-3 0  9994
2 43790  97.4997  73.6572 0012065 331.4870  28.5697 15.06854631334220
ESEO
1 43792U 18099AL  25015.58585386  .00002035  00000-0  16129-3 0  9995
2 43792  97.4730  68.7087 0007254 288.7478  71.2960 15.01608309334058
CSIM
1 43793U 18099AM  25015.61525293  .00052952  00000-0  14446-2 0  9993
2 43793  97.5065  87.0673 0007664 286.2276  73.8124 15.37238115335144
JO-97
1 43803U 18099AX  25015.13746265  .00012567  00000-0  66682-3 0  9994
2 43803  97.4906  75.8739 0007138 297.2823  62.7682 15.15463919334708
Suomi 100
1 43804U 18099AY  25015.68115042  .00011424  00000-0  63463-3 0  9993
2 43804  97.4972  76.0322 0012282 294.2104  65.7843 15.13810218334740
ISAT
1 43879U 18111D   25015.30824200  .00022463  00000-0  99951-3 0  9998
2 43879  97.6062 287.3174 0010814   0.0963   0.0272 15.21441450331541
UWE-4
1 43880U 18111E   25015.18103661  .00018549  00000-0  88470-3 0  9991
2 43880  97.5999 286.5022 0014511   6.9564 353.1869 15.19045816331507
Sparrow
1 43881U 18111F   25015.51914812  .00022301  00000-0  96882-3 0  9994
2 43881  97.6182 289.9242 0009957  37.3230 322.8696 15.22268843331658
Prox-1
1 44339U 19036A   25015.09194563  .00014160  00000-0  20243-2 0  9997
2 44339  23.9985 294.0354 0007735 219.5161 140.4771 14.74922345296478
SONATE
1 44400U 19038Q   25015.82673233  .00045618  00000-0  68918-3 0  9999
2 44400  97.7111  28.2935 0013312  67.5853 292.6808 15.54495910306864
